Shreveport Downtown, LA

10:53 PM CDT on March 27, 2017 (GMT -0500)
Shreveport Downtown

Weather History for KDTN - February, 2014

Change the Weather History Date:

Tuesday, February 4, 2014

  Actual Average (KBAD) Record (KBAD)
Temperature  
Mean Temperature 36 °F -  
Max Temperature 39 °F 54 °F 78 °F (2008)
Min Temperature 33 °F 37 °F 24 °F (2011)
Degree Days  
Heating Degree Days 29    
Moisture  
Dew Point 34 °F    
Average Humidity 95    
Maximum Humidity 100    
Minimum Humidity 89    
Precipitation  
Precipitation 0.53 in - - ()
Sea Level Pressure  
Sea Level Pressure 30.00 in    
Wind  
Wind Speed 6 mph (NE)    
Max Wind Speed 12 mph    
Max Gust Speed -    
Visibility 5 miles    
Events Fog , Rain , Thunderstorm    
Averages and records for this station are not official NWS values.
T = Trace of Precipitation, MM = Missing Value Source: NWS Daily Summary

Daily Weather History Graph

Daily Weather History Graph

Search for Another Location

Airport or City:

Trip Planner

Search our weather history database for the weather conditions in past years. The results will help you decide how hot, cold, wet, or windy it might be!

Date:

Astronomy

Feb. 04, 2014 Rise Set
Actual Time 7:07 AM CST 5:50 PM CST
Civil Twilight 6:41 AM CST 6:16 PM CST
Nautical Twilight 6:12 AM CST 6:45 PM CST
Astronomical Twilight 5:43 AM CST 7:14 PM CST
Moon 10:06 AM CST (2/4) 11:23 PM CST (2/4)
Length of Visible Light 11h 34m
Length of Day
10h 43m
Waxing Crescent, 29% of the Moon is Illuminated
Feb 4
Waxing Crescent
Feb 6
First Quarter
Feb 14
Full
Feb 22
Last Quarter
Mar 1
New

Hourly Weather History & Observations

Time (CST) Temp. Windchill Dew Point Humidity Pressure Visibility Wind Dir Wind Speed Gust Speed Precip Events Conditions
12:53 AM 35.1 °F 26.9 °F 32.0 °F 89% 30.07 in 10.0 mi East 11.5 mph - N/A   Overcast
1:53 AM 35.1 °F 30.1 °F 32.0 °F 89% 30.06 in 8.0 mi ENE 5.8 mph - N/A   Overcast
2:53 AM 34.0 °F 26.6 °F 30.9 °F 89% 30.05 in 9.0 mi East 9.2 mph - N/A   Overcast
3:53 AM 34.0 °F 28.0 °F 30.9 °F 89% 30.03 in 9.0 mi East 6.9 mph - N/A   Overcast
4:53 AM 34.0 °F 28.0 °F 30.9 °F 89% 30.01 in 9.0 mi East 6.9 mph - N/A   Overcast
5:53 AM 34.0 °F - 32.0 °F 92% 30.05 in 5.0 mi Calm Calm - 0.01 in Rain Rain
6:18 AM 35.6 °F 31.7 °F 33.8 °F 93% 30.07 in 5.0 mi NW 4.6 mph - 0.02 in Rain , Thunderstorm Light Rain
6:29 AM 33.8 °F 30.8 °F 33.8 °F 100% 30.05 in 2.0 mi North 3.5 mph - 0.06 in Rain , Thunderstorm Rain
6:40 AM 33.8 °F 30.8 °F 33.8 °F 100% 30.03 in 4.0 mi North 3.5 mph - 0.06 in Rain , Thunderstorm Light Rain
6:48 AM 33.8 °F 30.8 °F 33.8 °F 100% 30.04 in 3.0 mi NNW 3.5 mph - 0.07 in Rain Light Rain
6:53 AM 34.0 °F 31.0 °F 33.1 °F 96% 30.04 in 4.0 mi NE 3.5 mph - 0.07 in Rain Light Rain
6:58 AM 33.8 °F 27.0 °F 33.8 °F 100% 30.02 in 3.0 mi ENE 8.1 mph - 0.02 in Rain , Thunderstorm Light Rain
7:06 AM 33.8 °F 28.6 °F 33.8 °F 100% 30.01 in 2.0 mi ENE 5.8 mph - 0.07 in Rain , Thunderstorm Heavy Thunderstorms and Rain
7:17 AM 33.8 °F 29.6 °F 33.8 °F 100% 30.02 in 1.8 mi NNE 4.6 mph - 0.18 in Rain , Thunderstorm Heavy Thunderstorms and Rain
7:20 AM 33.8 °F 28.6 °F 33.8 °F 100% 30.02 in 1.8 mi ENE 5.8 mph - 0.19 in Rain Heavy Rain
7:27 AM 33.8 °F 29.6 °F 33.8 °F 100% 30.01 in 2.5 mi ENE 4.6 mph - 0.24 in Rain Heavy Rain
7:34 AM 33.8 °F 30.8 °F 33.8 °F 100% 30.01 in 3.0 mi ENE 3.5 mph - 0.25 in Rain Light Rain
7:43 AM 33.8 °F 28.6 °F 33.8 °F 100% 30.01 in 2.5 mi ENE 5.8 mph - 0.26 in Rain Light Rain
7:53 AM 34.0 °F 28.8 °F 33.1 °F 96% 29.99 in 4.0 mi ENE 5.8 mph - 0.26 in Rain Light Rain
8:24 AM 33.8 °F 28.6 °F 33.8 °F 100% 29.98 in 4.0 mi East 5.8 mph - 0.03 in Rain Light Rain
8:53 AM 35.1 °F 29.3 °F 33.1 °F 92% 29.96 in 10.0 mi ENE 6.9 mph - 0.03 in   Overcast
9:53 AM 35.1 °F 32.2 °F 34.0 °F 96% 29.99 in 4.0 mi Variable 3.5 mph - 0.05 in Rain Light Rain
10:36 AM 35.6 °F 30.7 °F 33.8 °F 93% 29.99 in 1.8 mi North 5.8 mph - 0.04 in Rain Light Rain
10:42 AM 35.6 °F 29.9 °F 33.8 °F 93% 29.99 in 3.0 mi North 6.9 mph - 0.04 in Rain Light Rain
10:53 AM 35.1 °F 28.6 °F 33.1 °F 92% 30.00 in 8.0 mi NNW 8.1 mph - 0.04 in   Overcast
11:19 AM 35.6 °F 29.9 °F 33.8 °F 93% 29.98 in 3.0 mi North 6.9 mph - 0.01 in Rain Light Rain
11:53 AM 35.1 °F 30.1 °F 33.1 °F 92% 29.99 in 5.0 mi NNW 5.8 mph - 0.01 in Rain Light Rain
12:53 PM 35.1 °F 29.3 °F 33.1 °F 92% 29.96 in 2.0 mi NNW 6.9 mph - 0.01 in   Overcast
1:15 PM 35.6 °F 29.2 °F 33.8 °F 93% 29.90 in 5.0 mi East 8.1 mph - 0.00 in   Overcast
1:34 PM 35.6 °F 30.7 °F 33.8 °F 93% 29.90 in 1.8 mi East 5.8 mph - 0.01 in Rain Light Rain
1:43 PM 35.6 °F 31.7 °F 33.8 °F 93% 29.89 in 2.0 mi East 4.6 mph - 0.01 in Rain Light Rain
1:50 PM 35.6 °F 32.8 °F 33.8 °F 93% 29.89 in 3.0 mi East 3.5 mph - 0.01 in Rain Light Rain
1:53 PM 35.1 °F 32.2 °F 34.0 °F 96% 29.89 in 4.0 mi East 3.5 mph - 0.01 in   Overcast
2:30 PM 35.6 °F 30.7 °F 35.6 °F 100% 29.89 in 2.5 mi East 5.8 mph - 0.02 in Rain Light Rain
2:45 PM 35.6 °F 32.8 °F 35.6 °F 100% 29.88 in 3.0 mi ESE 3.5 mph - 0.03 in Rain Light Rain
2:53 PM 36.0 °F 33.3 °F 35.1 °F 97% 29.89 in 3.0 mi SE 3.5 mph - 0.03 in Rain Light Rain
3:53 PM 37.0 °F - 35.1 °F 93% 29.90 in 10.0 mi Calm Calm - 0.01 in   Overcast
4:53 PM 37.9 °F 34.4 °F 36.0 °F 93% 29.91 in 9.0 mi NW 4.6 mph - N/A   Overcast
5:53 PM 37.9 °F 33.5 °F 36.0 °F 93% 29.94 in 10.0 mi NW 5.8 mph - N/A   Overcast
6:53 PM 37.9 °F 34.4 °F 37.0 °F 97% 29.96 in 10.0 mi WNW 4.6 mph - N/A   Overcast
7:53 PM 37.9 °F 32.7 °F 37.0 °F 97% 30.00 in 10.0 mi WNW 6.9 mph - N/A   Overcast
8:53 PM 39.0 °F 35.7 °F 37.0 °F 93% 30.04 in 10.0 mi WNW 4.6 mph - N/A   Overcast
9:42 PM 39.2 °F - 37.4 °F 93% 30.04 in 10.0 mi Calm Calm - N/A   Overcast
9:53 PM 39.0 °F - 36.0 °F 89% 30.05 in 10.0 mi Calm Calm - N/A   Overcast
10:53 PM 37.9 °F - 36.0 °F 93% 30.06 in 10.0 mi Calm Calm - N/A   Mostly Cloudy
11:15 PM 37.4 °F - 35.6 °F 93% 30.07 in 8.0 mi Calm Calm - N/A   Partly Cloudy
11:20 PM 35.6 °F - 35.6 °F 100% 30.07 in 1.5 mi Calm Calm - N/A   Scattered Clouds
11:23 PM 35.6 °F - 35.6 °F 100% 30.07 in 0.8 mi Calm Calm - N/A   Mist
11:49 PM 35.6 °F - 33.8 °F 93% 30.08 in 0.5 mi Calm Calm - N/A Fog Fog
11:53 PM 35.1 °F 32.2 °F 34.0 °F 96% 30.09 in 0.5 mi West 3.5 mph - N/A Fog Fog